Regional Weather Roundup
Issued by NWS

Home | Current Version | Previous Version | Graphics & Text | Print | Product List | Glossary On
Versions: 1 2 3 4 5 6 7 8 9 10 11 12 13 14 15 16 17 18 19 20 21 22 23 24 25 26 27 28 29 30 31 32 33 34 35 36 37 38 39 40 41 42 43 44 45 46 47 48 49 50
000
ASUS43 KDTX 230210
RWRMI
MICHIGAN HOURLY REGIONAL WEATHER ROUNDUP
NATIONAL WEATHER SERVICE DETROIT/PONTIAC MI
1000 PM EDT FRI SEP 22 2017

NOTE: "FAIR" INDICATES FEW OR NO CLOUDS BELOW 12,000 FEET WITH NO
SIGNIFICANT WEATHER AND/OR OBSTRUCTION TO VISIBILITY.

MIZ047>049-052>055-059>063-066>070-074>076-081>083-230300-
SOUTHEAST LOWER MICHIGAN

CITY           SKY/WX    TMP DP  RH WIND       PRES   REMARKS
ADRIAN         PTCLDY    74  66  76 CALM      30.09S
ANN ARBOR      CLEAR     67  66  97 CALM      30.08S
BAD AXE        MOCLDY    77  65  66 NE14      30.12R
CARO           CLEAR     72  67  84 CALM      30.07S
DETROIT CITY   CLEAR     75  65  70 SE5       30.09R
DETROIT        PTCLDY    74  65  73 CALM      30.09S
FLINT          CLEAR     77  67  71 S6        30.08R
GROSSE ILE     CLEAR     71  66  83 CALM      30.07S
HILLSDALE      CLEAR     70  61  73 CALM      30.10S
HOWELL         CLEAR     77  67  71 S3        30.09R

CITY           SKY/WX    TMP DP  RH WIND       PRES   REMARKS
JACKSON        CLEAR     75  66  73 SE3       30.09S
LAMBERTVILLE   CLEAR     71  67  87 CALM      30.08S
LANSING        CLEAR     79  62  56 S5        30.08R
LAPEER         FAIR      71  67  88 SE5       30.09R
MASON          CLEAR     76  65  67 CALM      30.08S
MONROE         CLEAR     72  68  87 CALM      30.08R
MT. CLEMENS    PTCLDY    69  67  95 S7        30.06S
PONTIAC        PTCLDY    77  69  76 CALM      30.08S
PORT HOPE        N/A     72  66  81 N12       30.10R
PORT HURON     CLEAR     68  66  94 CALM      30.09R
TRI CITIES     PTCLDY    78  69  73 CALM      30.06R
MIDLAND        FAIR      79  66  64 NE6       30.06R
TROY           CLEAR     79  66  64 SW3       30.10S
SAGINAW HB     PTCLDY    77  66  69 SE3       30.05S
$$
MIZ043>046-050>051-056>058-064>065-071>073-077>080-230300-
SOUTHWEST LOWER MICHIGAN

CITY           SKY/WX    TMP DP  RH WIND       PRES   REMARKS
BATTLE CREEK   CLEAR     75  64  68 S7        30.08S
BENTON HARBOR  CLEAR     73  68  84 E3        30.04F
BIG RAPIDS     CLEAR     69  64  81 CALM      30.07R
COLDWATER      CLEAR     72  65  80 E3        30.08S
FREMONT        FAIR      76  66  71 SE3       30.05S
HOLLAND        CLEAR     72  65  78 CALM      30.06R
GRAND RAPIDS   CLEAR     76  65  68 CALM      30.06R
IONIA          FAIR      73  65  74 S3        30.06R
KALAMAZOO      CLEAR     75  63  66 SW3       30.06F
LUDINGTON      CLEAR     66  64  93 CALM      30.04R
MARSHALL       CLEAR     70  66  87 CALM      30.07F
MUSKEGON       PTCLDY    76  66  71 CALM      30.05R
SOUTH HAVEN    CLEAR     72  68  88 CALM      30.05S
$$
MIZ016>042-230300-
NORTHERN LOWER MICHIGAN

CITY           SKY/WX    TMP DP  RH WIND       PRES   REMARKS
ALPENA         PTCLDY    68  66  93 S6        30.06F
BEAVER ISLAND  CLOUDY    70  62  73 S7        30.01R
BELLAIRE       PTCLDY    67  62  83 CALM      30.02S
CADILLAC       CLEAR     70  63  80 S7        30.08S
CHARLEVOIX     CLOUDY    71  61  72 E5        30.05R
FRANKFORT      CLEAR     73  66  80 CALM      30.02S
GAYLORD        PTCLDY    68  60  75 S7        30.07S
GRAYLING       CLOUDY    66  62  87 CALM      30.08S
HARBOR SPRINGS MOCLDY    67  62  84 CALM      30.02R
HOUGHTON LAKE  CLOUDY    66  63  90 SE3       30.08F
MANISTEE       CLEAR     70  66  87 E5        30.01F
OSCODA         LGT RAIN  69  69  97 CALM      30.08S
PELLSTON       MOCLDY    64  60  87 CALM      30.03R
ROGERS CITY    PTCLDY    70  63  80 S3        30.06R
TRAVERSE CITY  CLOUDY    74  63  68 S3        30.01R
$$
MIZ007>008-015-230300-
EASTERN UPPER MICHIGAN

CITY           SKY/WX    TMP DP  RH WIND       PRES   REMARKS
KINROSS        LGT RAIN  67  65  93 S8        30.04R
MACKINAC ISLAN PTCLDY    72  61  69 SE5       30.02S
NEWBERRY       CLOUDY    65  64  97 CALM      30.01R
S. S. MARIE    CLOUDY    68  66  93 E3        30.03R
MUNISING         N/A     67  66  97 S6        29.96R
$$
MIZ004>006-011>014-085-230300-
CENTRAL UPPER MICHIGAN

CITY           SKY/WX    TMP DP  RH WIND       PRES   REMARKS
MANISTIQUE     CLOUDY    64  58  81 SE6       29.99R
ESCANABA       CLEAR     67  65  93 CALM      29.98S
MENOMINEE      CLEAR     70  66  87 S5        29.99R
SAWYER-GWINN   CLEAR     64  63  94 S12       29.98R
$$
MIZ001>003-009>011-084-230300-
WESTERN UPPER MICHIGAN

CITY           SKY/WX    TMP DP  RH WIND       PRES   REMARKS
IRON MOUNTAIN  CLEAR     67  63  87 SE5       29.97S
HOUGHTON       CLEAR     66  60  81 E7        29.90F
COPPER HARBOR    N/A     65  61  87 CALM      29.89F
IRONWOOD       CLEAR     76  68  76 S14G22    29.87S
$$

ABBREVIATIONS USED IN REMARKS
   TC - TEMPERATURE IN CELSIUS
  WCI - WIND CHILL INDEX
   HX - HEAT INDEX
  VSB - VISIBILITY





USA.gov is the U.S. government's official web portal to all federal, state and local government web resources and services.